Regional Weather Roundup
Issued by NWS

Home | Current Version | Previous Version | Graphics & Text | Print | Product List | Glossary On
Versions: 1 2 3 4 5 6 7 8 9 10 11 12 13 14 15 16 17 18 19 20 21 22 23 24 25 26 27 28 29 30 31 32 33 34 35 36 37 38 39 40 41 42 43 44 45 46 47 48 49 50
000
ASUS43 KDTX 250510
RWRMI
MICHIGAN HOURLY REGIONAL WEATHER ROUNDUP
NATIONAL WEATHER SERVICE DETROIT/PONTIAC MI
1200 AM EST THU DEC 25 2014

NOTE: "FAIR" INDICATES FEW OR NO CLOUDS BELOW 12,000 FEET WITH NO
SIGNIFICANT WEATHER AND/OR OBSTRUCTION TO VISIBILITY.

MIZ047>049-052>055-059>063-066>070-074>076-081>083-250600-
SOUTHEAST LOWER MICHIGAN

CITY           SKY/WX    TMP DP  RH WIND       PRES   REMARKS
ADRIAN         CLOUDY    37  34  89 W15G23    29.54R
ALMA           LGT SNOW  33  33 100 W12G18    29.44R
ANN ARBOR      CLOUDY    36  33  89 W20       29.49R
BAD AXE        LGT SNOW  33  33 100 W20G26    29.33R
DETROIT CITY   CLOUDY    39  33  79 W17G24    29.47R
DETROIT        LGT RAIN  37  34  89 SW20G25   29.50R
FLINT          FLURRIES  35  32  88 W15       29.43R
GROSSE ILE     CLOUDY    37  34  87 SW12G22   29.49R
HILLSDALE      CLOUDY    35  35 100 SW14      29.52R
HOWELL         FLURRIES  33  33 100 SW13G20   29.46R

CITY           SKY/WX    TMP DP  RH WIND       PRES   REMARKS
JACKSON        CLOUDY    34  32  92 W10       29.50R
LAMBERTVILLE   CLOUDY    37  34  87 SW16G23   29.55R
LANSING        FLURRIES  34  32  92 SW16      29.48R
LAPEER         NOT AVBL
MASON          CLOUDY    33  32  96 SW9G21    29.49R
MONROE         CLOUDY    37  36  93 SW21      29.51R
MT. CLEMENS    CLOUDY    36 N/A N/A SW18G25   29.42R
PONTIAC        FLURRIES  34  33  96 W15G23    29.43R
PORT HOPE        N/A     34  31  88 W17G29    29.27R
PORT HURON     CLOUDY    34  34 100 SW12G17   29.39R
TRI CITIES     FLURRIES  35  32  88 W16       29.41R
YPSILANTI      CLOUDY    40  33  76 SW20G26   29.50R
$$
MIZ043>046-050>051-056>058-064>065-071>073-077>080-250600-
SOUTHWEST LOWER MICHIGAN

CITY           SKY/WX    TMP DP  RH WIND       PRES   REMARKS
BATTLE CREEK   CLOUDY    35  32  88 SW13      29.51R
BENTON HARBOR  CLOUDY    37  35  92 W16G25    29.56R
BIG RAPIDS     LGT SNOW  35  35 100 W9        29.43R
COLDWATER      CLOUDY    35  34  97 SW12      29.54R
HOLLAND        CLOUDY    40  34  79 W13G21    29.52R
GRAND RAPIDS   CLOUDY    37  34  89 W17       29.49R
KALAMAZOO      LGT RAIN  37  34  89 W10       29.53R
MARSHALL       MIX PCPN  33  32  96 SW12      29.51R
MUSKEGON       LGT RAIN  37  34  89 NW14G24   29.51R
$$
MIZ016>042-250600-
NORTHERN LOWER MICHIGAN

CITY           SKY/WX    TMP DP  RH WIND       PRES   REMARKS
ALPENA         LGT SNOW  33  32  96 W8G22     29.24R FOG
BEAVER ISLAND  CLOUDY    33  32  95 W9        29.36S
BELLAIRE       CLOUDY    35  33  91 W5        29.38R
CADILLAC       LGT SNOW  33  32  98 W8G21     29.38R
CHARLEVOIX     CLOUDY    34  33  96 W16G23    29.39R
FRANKFORT      CLOUDY    34  32  92 NW10G16   29.43S
GAYLORD        LGT SNOW  32  31  96 W12G20    29.30R FOG
GRAYLING       LGT SNOW  33  33 100 W8        29.34R
HARBOR SPRINGS CLOUDY    34  32  93 W10       29.32R
HOUGHTON LAKE  LGT SNOW  33  31  92 W10       29.35R FOG
MANISTEE       CLOUDY    36  30  80 NW14      29.45S
OSCODA         LGT SNOW  33  33  99 W14       29.27R
PELLSTON       CLOUDY    34  32  92 W15       29.31S
TRAVERSE CITY  CLOUDY    35  33  92 W15       29.39R
$$
MIZ007>008-015-250600-
EASTERN UPPER MICHIGAN

CITY           SKY/WX    TMP DP  RH WIND       PRES   REMARKS
KINROSS        CLOUDY    36  36 100 NW15      29.25F
MACKINAC ISLAN CLOUDY    34  34 100 W13G20    29.28R
NEWBERRY       CLOUDY    32  32 100 W8        29.32S FOG
S. S. MARIE    CLOUDY    35  33  92 NW14G20   29.23F
$$
MIZ004>006-011>014-085-250600-
CENTRAL UPPER MICHIGAN

CITY           SKY/WX    TMP DP  RH WIND       PRES   REMARKS
MANISTIQUE     LGT SNOW  32  32 100 NW10G18   29.36S
ESCANABA       CLOUDY    32  28  86 W7        29.41S
MENOMINEE      CLOUDY    34  28  80 W7        29.46R
SAWYER-GWINN   CLOUDY    30  28  91 NW5       29.40R
$$
MIZ001>003-009>011-084-250600-
WESTERN UPPER MICHIGAN

CITY           SKY/WX    TMP DP  RH WIND       PRES   REMARKS
IRON MOUNTAIN  CLOUDY    32  27  81 NW10      29.43R
HOUGHTON       LGT SNOW  31  29  92 NW12      29.42S FOG
COPPER HARBOR    N/A     34  28  79 N17       29.42R
IRONWOOD       CLOUDY    30  30 100 W12       29.47S
$$

ABBREVIATIONS USED IN REMARKS
   TC - TEMPERATURE IN CELSIUS
  WCI - WIND CHILL INDEX
   HX - HEAT INDEX
  VSB - VISIBILITY



USA.gov is the U.S. government's official web portal to all federal, state and local government web resources and services.